ECMWFFLT1_850_thetae_057.txt.gz
Theta_e
326 325 325 324 323 321 319 318 320 322 322 322 321 317 313 314 315 315 316 317 319 321 323 324 325 325 325 325 325 325 326 327 327 327 327 327 326 326 327 327 326 326 326 325 324 323 323 324 326 326 326 325 325 325 325 324 324 324 324 324 324 323 322
326 325 325 324 322 320 318 319 321 323 323 323 321 317 313 314 315 315 316 316 317 319 321 323 324 325 325 325 325 325 324 325 327 327 327 327 326 326 326 327 326 326 326 325 324 324 323 324 325 325 325 324 324 324 324 323 323 323 324 324 323 323 322
327 326 322 320 318 317 317 319 322 323 323 321 319 317 316 316 316 316 317 317 317 317 318 321 322 323 324 323 323 324 323 324 326 326 326 326 326 326 327 326 326 326 326 325 324 324 323 324 325 324 324 324 323 323 323 323 323 323 323 323 322 322 322
328 324 317 316 314 314 317 319 321 322 322 319 317 317 318 318 318 319 319 318 318 317 316 318 319 320 321 321 322 322 322 323 324 325 324 325 325 326 326 326 326 325 325 324 324 324 324 324 324 323 323 323 322 322 322 322 322 322 322 322 321 321 321
327 322 315 313 313 315 318 318 318 320 319 318 316 317 318 319 320 321 321 320 319 317 316 317 319 319 319 320 321 321 321 322 323 324 324 324 325 325 325 325 326 325 324 324 324 324 324 324 323 323 322 321 320 320 321 321 320 320 320 321 321 321 321
328 322 315 314 315 317 318 317 316 316 317 317 317 317 317 319 321 322 321 321 320 318 316 317 318 318 318 318 319 320 320 321 323 324 324 324 323 323 324 325 325 324 324 325 325 324 324 324 323 322 320 319 319 319 319 318 318 318 319 319 320 320 320
326 320 314 314 317 318 317 317 316 314 315 317 317 316 316 319 321 322 322 322 321 318 316 317 318 317 317 318 319 320 320 321 322 323 323 323 323 323 323 324 324 324 324 325 325 325 324 323 322 321 319 318 318 318 317 317 317 316 316 317 318 318 318
323 316 314 315 316 316 316 318 317 314 314 315 316 316 316 317 319 321 322 322 321 318 315 316 318 318 318 319 320 321 322 322 322 322 322 322 322 323 323 323 323 324 324 325 324 324 324 323 322 320 319 318 318 317 317 316 315 314 314 314 313 312 311
319 316 315 316 316 315 316 319 319 316 313 312 313 315 316 314 315 319 321 321 320 317 313 314 317 319 319 320 322 322 322 322 322 322 322 322 322 322 322 323 323 323 324 325 323 323 323 322 320 319 318 318 317 317 316 316 314 313 312 311 309 307 306
321 320 318 317 316 315 317 318 317 313 309 308 310 313 314 311 311 317 321 320 319 315 311 313 316 318 320 321 322 323 322 322 322 322 322 322 322 322 322 322 323 323 324 324 323 323 322 320 319 318 317 316 315 314 314 314 314 313 311 310 309 308 307
326 321 317 315 313 315 317 316 313 309 306 306 307 308 309 307 308 315 319 317 315 311 309 312 313 314 318 321 320 321 322 322 322 322 322 322 322 322 322 322 323 323 322 322 321 321 320 319 318 317 316 316 314 312 310 311 312 311 310 308 308 307 307
325 318 313 311 311 315 318 315 311 307 305 306 306 305 306 305 305 310 313 312 310 307 306 308 308 308 315 319 318 318 320 321 321 321 321 322 322 322 322 322 322 321 319 320 319 319 318 318 318 317 316 315 314 313 311 310 310 309 307 307 307 306 307
322 314 311 310 311 316 318 316 312 308 305 305 305 305 305 305 305 306 308 308 308 306 305 305 305 306 311 315 315 315 317 318 319 319 320 322 322 322 321 321 321 319 319 319 319 319 318 318 317 317 317 316 315 314 313 312 312 309 306 307 308 308 308
321 314 312 313 315 317 317 317 315 309 305 305 305 305 305 305 305 305 306 306 306 306 305 305 305 305 308 311 311 311 312 314 318 319 319 320 321 322 321 321 321 320 320 320 320 320 319 318 318 317 317 317 316 316 314 312 312 310 307 308 309 309 310
319 316 317 318 319 317 317 317 314 309 306 305 304 305 304 305 304 304 305 305 305 305 304 305 305 304 306 307 307 307 307 309 313 316 317 319 320 321 320 320 321 321 320 320 320 319 318 317 317 317 317 317 317 317 316 313 312 312 309 308 308 309 311
320 320 321 321 319 316 316 317 314 310 307 304 304 305 304 304 305 304 304 304 304 305 304 304 305 305 307 307 307 307 307 307 309 310 311 313 316 319 320 319 318 318 318 318 318 317 316 316 316 315 315 316 316 316 317 314 312 312 311 309 308 309 310
321 322 321 320 318 315 315 317 314 313 312 306 304 305 304 304 305 304 304 304 304 305 305 306 307 308 309 310 309 309 310 309 309 308 308 309 311 316 319 319 318 317 317 317 317 316 315 314 314 314 314 315 315 316 317 315 312 312 312 310 309 309 310
322 323 321 320 319 314 314 314 312 314 315 310 304 304 305 305 305 305 305 305 305 306 307 307 309 310 310 310 310 310 309 309 310 310 309 310 310 313 316 318 318 317 317 316 315 314 313 313 313 314 314 314 315 316 316 314 313 313 313 312 310 309 311
322 322 322 320 315 312 314 313 310 312 316 312 305 304 306 305 305 306 306 307 307 307 308 309 309 310 309 309 309 309 309 309 309 309 309 310 310 311 313 314 314 314 314 314 313 313 313 313 313 314 314 314 315 316 316 314 313 315 315 313 310 310 312
322 322 322 317 312 313 315 313 310 313 317 314 306 305 306 305 306 306 306 307 307 307 308 308 309 309 309 309 309 309 309 309 309 309 309 309 310 310 311 311 311 311 311 312 313 313 313 313 313 314 314 314 313 314 314 314 314 315 315 314 311 311 312
322 322 321 316 313 315 314 312 313 317 319 315 308 306 307 306 306 307 307 307 307 308 308 308 309 310 310 311 311 310 309 308 308 308 309 310 311 312 312 311 311 311 311 312 313 313 313 313 314 314 314 314 313 313 313 314 315 315 315 314 313 312 312
322 321 319 316 316 314 311 312 317 318 317 315 311 309 309 309 308 308 308 309 309 309 310 310 310 309 310 311 310 310 309 308 308 308 309 311 313 314 315 315 315 314 314 314 314 315 314 313 314 315 315 315 314 314 314 315 316 316 315 314 313 312 312
321 321 319 317 316 313 311 314 318 317 316 316 313 311 312 313 312 310 311 313 314 314 314 314 313 312 310 310 310 310 311 312 312 312 313 314 315 316 316 316 316 316 316 316 316 317 317 316 315 315 315 315 315 315 315 315 316 316 315 315 314 313 313
321 320 318 317 317 315 314 316 318 318 319 317 314 313 315 316 315 314 315 316 317 318 317 317 317 317 315 315 315 316 317 317 317 317 317 317 317 318 318 318 318 317 317 316 316 317 318 318 317 316 315 315 315 315 316 316 316 316 316 315 315 315 314
321 319 317 318 318 316 316 318 320 321 319 316 313 312 315 317 316 315 316 318 318 318 318 318 318 318 319 319 319 319 319 320 320 319 319 319 318 318 319 319 319 319 317 317 317 317 318 318 318 317 317 316 315 315 315 315 315 315 315 315 315 315 315
321 320 319 320 319 317 318 320 321 320 318 317 316 314 315 317 316 315 316 317 317 318 318 318 318 318 319 319 319 319 319 320 320 319 318 319 319 319 319 319 320 319 318 317 317 317 317 317 317 318 318 317 316 316 315 315 315 314 314 314 314 315 315
321 320 320 320 319 319 320 321 321 319 316 316 318 318 318 318 318 319 318 317 317 318 319 319 319 319 319 319 319 319 319 319 319 319 318 318 318 318 318 319 320 320 319 318 317 317 317 317 317 317 318 318 317 317 317 317 316 315 314 314 315 314 314
321 320 320 319 319 319 319 320 320 319 317 317 317 317 319 320 320 319 319 318 318 318 319 319 319 319 319 319 319 319 319 319 319 319 318 318 318 318 318 319 320 320 319 317 316 316 316 317 317 317 317 318 318 318 318 318 317 316 316 315 315 314 314
321 320 320 319 320 320 320 320 320 319 319 319 318 318 319 320 319 318 318 318 318 318 318 319 319 319 319 319 319 319 319 319 319 319 319 318 318 317 317 318 318 318 317 315 315 315 316 316 316 317 317 318 318 318 318 317 317 317 317 316 315 314 314
320 319 318 319 319 319 319 320 320 320 319 319 319 319 319 319 318 318 318 319 319 319 318 317 318 319 319 319 319 319 319 319 319 319 319 319 318 317 317 316 316 316 315 315 315 315 316 315 316 316 318 318 318 318 318 317 317 317 317 316 315 314 313
316 317 317 317 316 316 318 318 318 318 318 317 317 317 317 317 317 317 317 317 317 318 317 316 317 318 318 319 319 319 320 320 319 319 319 318 318 317 316 316 316 316 315 315 315 315 315 315 316 317 318 318 318 318 317 316 315 316 316 314 312 310 308
311 312 314 314 313 314 315 316 316 316 316 316 316 315 315 315 315 315 315 314 314 314 314 314 315 315 316 316 317 317 318 318 318 318 318 317 316 316 316 316 316 315 315 315 315 315 315 316 316 317 317 317 317 317 315 313 313 312 310 308 306 305 304
309 309 310 310 310 311 312 312 313 314 315 315 315 315 314 314 314 314 314 313 313 313 313 313 313 313 313 314 314 315 315 316 316 316 316 316 315 315 316 316 315 315 315 315 315 315 315 316 316 316 316 316 315 313 310 309 308 307 306 305 304 305 305
310 309 309 308 308 308 308 308 309 310 311 312 313 313 313 313 314 313 313 314 313 314 313 313 312 312 312 312 313 314 314 314 315 315 316 316 316 315 315 315 315 315 315 315 315 315 315 315 315 314 314 314 312 308 306 307 307 306 305 305 305 306 306
308 309 309 309 309 308 307 307 307 307 308 308 309 310 311 312 312 312 312 312 312 313 313 313 312 312 312 312 312 312 313 313 313 314 315 315 315 315 314 313 314 315 315 315 315 315 315 315 313 311 310 310 309 307 307 308 308 308 307 307 307 307 307
303 304 305 306 306 307 306 306 307 307 307 306 307 308 309 309 310 311 311 311 311 311 311 311 312 312 312 313 313 313 312 311 310 310 310 311 311 312 312 312 314 315 315 315 315 314 314 314 313 311 308 307 306 306 307 308 309 308 308 308 308 308 307
301 301 301 302 302 302 302 303 303 304 304 304 304 304 305 305 306 307 308 309 310 310 311 311 311 311 312 312 312 313 313 312 310 309 309 309 309 309 310 310 311 312 314 314 315 314 314 315 315 313 309 306 304 304 304 306 307 308 308 308 308 307 305

ECMWFFLT1_850_thetae_063.txt.gz
Theta_e
327 327 326 326 326 326 325 324 322 322 322 322 322 323 323 323 322 322 324 325 325 326 326 326 327 327 327 327 327 327 327 326 326 327 327 327 327 327 326 326 326 326 325 325 325 325 325 325 325 326 326 326 325 325 325 324 324 324 324 323 322 321 321
327 326 325 324 324 323 322 320 318 317 317 317 318 318 320 320 319 320 321 322 323 325 325 325 325 325 326 325 326 327 327 327 327 327 327 326 327 327 327 327 327 326 326 326 325 324 325 325 326 325 325 325 324 324 324 324 323 324 323 322 322 322 322
327 325 322 320 318 318 317 315 316 316 316 316 314 314 315 316 317 317 319 319 320 321 323 324 324 324 325 325 325 326 326 326 327 327 327 326 327 328 327 327 327 327 326 326 325 325 325 325 325 325 325 324 323 322 323 323 323 323 323 322 322 323 323
327 325 321 317 316 316 315 315 316 317 317 317 314 312 314 316 316 317 318 317 317 317 319 321 323 324 324 325 325 325 325 325 325 326 326 326 326 327 327 327 327 327 326 326 326 325 325 325 325 325 324 323 322 321 322 323 322 322 322 322 323 323 323
327 326 322 317 315 315 315 316 317 318 318 316 315 313 316 318 318 319 319 318 318 317 317 319 322 323 323 324 323 323 323 323 323 325 326 326 326 326 326 326 327 326 326 326 326 325 325 325 325 324 323 322 321 320 321 322 322 321 321 322 323 323 323
326 323 320 317 315 314 316 316 316 317 316 315 314 315 317 319 320 320 319 318 318 317 317 318 320 321 321 321 321 322 322 322 322 324 325 325 326 326 326 326 326 326 325 325 325 325 325 325 325 324 323 321 321 320 320 321 321 321 322 322 322 323 322
325 322 319 316 315 315 317 316 315 315 314 313 314 316 317 318 319 319 318 317 317 316 316 318 318 319 319 319 320 321 321 321 321 323 324 324 325 325 325 325 326 325 325 325 325 324 324 324 324 324 322 321 320 319 319 320 320 320 321 322 322 322 322
324 324 320 315 315 316 317 317 315 315 314 314 314 315 316 317 318 318 318 318 316 314 316 318 318 318 317 317 318 319 320 321 322 323 324 324 324 324 324 325 325 325 324 325 325 324 324 324 324 323 321 321 320 318 317 318 318 318 320 321 321 320 319
325 325 320 316 316 317 317 317 315 316 316 316 316 315 316 317 318 318 318 318 315 313 315 317 317 317 317 317 318 319 320 321 322 322 323 323 323 323 324 324 325 325 324 325 325 324 324 324 323 322 319 319 320 318 318 317 316 317 319 319 317 316 313
326 326 320 317 318 318 318 318 318 318 318 318 317 316 316 317 317 318 319 317 313 312 315 317 317 317 318 319 320 321 321 322 322 322 322 322 323 323 323 324 325 324 324 325 324 324 323 323 322 321 318 317 318 319 319 318 316 316 318 316 312 309 306
327 325 320 318 319 319 320 320 320 320 318 317 317 316 315 315 314 317 319 316 311 311 314 317 317 317 317 319 320 321 321 322 322 322 322 322 322 323 323 324 324 324 324 324 323 323 322 322 321 318 316 315 316 317 319 318 316 315 314 312 308 307 306
327 324 320 320 319 318 320 321 322 321 316 314 315 314 312 311 311 315 317 314 310 310 313 316 315 314 315 317 319 320 321 321 322 322 322 322 322 322 323 323 324 324 324 323 323 322 321 321 319 317 315 314 312 313 315 316 316 313 311 309 307 307 307
326 323 320 321 320 319 319 320 320 318 312 310 312 311 308 307 308 312 314 311 308 310 313 315 314 312 311 315 318 320 321 320 321 321 322 321 322 322 323 323 324 324 324 323 322 321 319 319 318 316 315 314 313 312 312 314 314 312 310 309 307 307 307
325 322 322 322 320 318 318 318 317 312 308 307 308 307 305 305 307 309 310 308 306 308 311 313 311 309 309 313 317 319 319 319 320 321 322 322 322 322 323 323 323 323 322 321 320 319 318 318 317 317 316 316 316 315 312 312 313 310 309 309 308 307 307
324 324 324 323 320 319 318 318 315 309 306 306 306 305 305 305 306 307 307 307 305 305 307 307 307 307 310 313 315 316 317 318 318 320 321 321 322 322 322 321 320 320 320 319 318 318 317 317 317 317 317 317 317 317 316 314 312 310 308 308 307 306 307
324 325 324 321 318 318 319 319 315 309 305 306 305 304 305 304 305 307 306 306 305 305 305 305 306 307 310 312 313 313 315 317 317 318 319 321 321 321 320 319 319 319 318 318 318 317 317 317 317 317 317 317 317 317 318 317 315 312 309 307 307 307 308
326 326 323 318 316 318 320 320 318 312 306 305 305 304 305 304 305 306 306 305 305 305 305 305 306 308 310 311 312 312 313 315 316 316 316 318 319 320 319 319 320 320 320 319 319 319 318 318 317 317 316 316 316 315 316 317 318 316 313 310 308 308 309
326 325 322 316 314 318 321 321 319 314 307 305 305 305 304 304 305 306 305 305 305 305 305 304 306 307 309 310 310 309 310 313 315 316 316 316 317 318 319 318 318 318 318 318 318 318 318 317 316 315 314 314 314 314 314 315 316 317 317 314 310 308 309
327 325 320 315 315 319 322 321 320 316 311 307 306 305 305 304 305 306 305 304 304 305 304 304 305 307 308 308 308 308 309 310 311 312 313 312 313 315 317 317 318 317 317 317 317 316 316 315 314 314 313 313 313 314 314 314 314 315 317 317 314 310 309
327 324 319 316 317 321 322 321 320 318 315 312 309 308 307 305 305 306 305 304 304 305 305 305 305 307 308 308 308 308 309 309 309 310 310 311 311 312 314 316 317 317 317 317 317 316 315 314 313 313 313 313 313 313 313 313 314 314 316 317 316 312 309
326 323 319 318 320 321 322 322 320 318 317 316 314 312 310 307 306 307 306 305 304 305 305 306 307 307 308 308 308 309 309 310 310 310 310 311 311 311 311 312 313 313 314 314 313 313 312 312 312 313 313 313 313 313 313 313 313 313 315 316 316 314 311
325 321 320 320 321 321 322 321 319 318 318 318 317 315 313 310 308 307 307 306 306 305 306 306 308 309 309 310 310 310 310 310 310 310 310 310 310 310 310 311 311 312 312 312 312 312 312 313 314 314 315 315 314 313 313 313 313 313 314 315 315 314 311
323 321 321 321 321 321 322 321 319 317 317 317 316 316 315 312 309 308 308 307 307 306 306 307 308 309 311 311 312 311 311 311 311 310 310 310 310 310 310 311 313 314 315 315 315 315 315 315 315 315 315 316 315 315 314 314 314 313 313 313 314 313 312
322 321 321 322 321 321 320 318 315 315 314 314 314 315 315 313 310 310 310 310 310 309 307 307 308 309 310 311 311 311 311 311 311 311 312 313 314 313 312 313 315 316 317 317 317 317 317 316 316 316 315 315 315 315 315 315 315 314 313 313 312 313 313
323 322 322 322 321 320 317 314 313 313 312 313 314 314 315 315 312 311 313 314 314 312 309 307 308 308 309 310 311 311 311 311 312 313 315 317 318 318 317 317 317 318 318 318 318 318 318 318 318 318 318 317 316 316 316 316 316 315 315 314 313 313 313
322 321 321 321 320 318 317 316 316 315 314 314 314 314 313 314 313 313 314 316 316 315 312 309 309 309 311 313 314 315 315 315 316 317 318 318 318 318 318 318 318 318 318 318 318 319 319 320 320 320 320 320 319 319 318 317 316 316 316 316 315 315 314
321 320 320 319 319 319 318 318 318 317 316 315 315 315 314 315 316 316 315 315 316 316 314 312 312 313 314 316 317 317 318 318 318 319 319 319 319 319 318 319 319 318 318 318 318 318 319 320 320 320 320 320 320 320 319 318 316 316 315 316 316 317 316
319 319 319 319 320 319 319 318 316 315 315 315 316 317 317 318 318 318 315 313 314 316 315 314 315 316 317 317 317 318 318 318 318 318 319 319 319 319 319 319 318 318 318 317 318 318 318 319 319 319 319 319 319 318 317 316 316 315 315 316 317 317 317
319 319 319 319 319 319 318 317 316 315 315 315 316 317 319 319 319 319 317 314 314 315 316 315 315 317 317 317 317 317 318 318 318 318 318 318 318 319 319 319 318 318 318 318 318 318 318 318 318 318 319 318 317 317 316 316 315 315 315 316 317 317 317
319 319 319 319 319 319 319 318 318 317 317 317 317 317 319 319 319 319 319 318 317 317 317 317 318 318 318 318 318 318 318 319 319 318 319 318 318 318 318 318 318 318 318 318 318 318 318 318 318 318 317 317 316 316 316 315 315 315 316 316 316 317 317
318 318 318 318 319 319 319 319 319 319 319 319 319 319 319 319 319 319 319 319 319 319 319 318 318 318 318 317 317 318 318 318 318 318 318 318 318 318 318 318 318 318 319 319 319 318 318 318 318 317 317 316 316 316 315 315 315 315 315 316 316 316 316
315 315 316 317 317 318 318 318 318 318 318 319 318 318 318 318 318 319 319 318 318 318 317 317 316 316 317 317 317 317 317 317 317 317 317 317 318 318 317 317 317 318 318 317 317 318 318 317 317 316 316 315 315 315 315 315 315 315 315 316 316 316 316
311 312 313 313 314 316 316 316 316 316 316 317 317 317 316 316 317 317 316 316 316 316 316 316 316 316 316 316 315 315 315 315 315 314 314 314 315 314 314 315 315 315 315 315 315 316 316 316 316 316 315 315 315 315 315 315 315 316 315 316 316 316 316
308 309 310 310 310 311 313 313 314 314 315 315 315 315 314 314 314 314 313 312 312 312 313 313 314 314 314 313 313 313 313 313 313 312 312 312 312 312 312 312 312 313 313 314 315 315 315 315 315 315 315 315 315 315 315 315 315 316 316 316 316 315 315
304 305 306 306 306 306 308 309 310 311 312 313 312 312 312 312 311 311 311 311 310 309 310 310 311 311 312 312 312 312 312 312 311 311 311 311 312 312 311 311 310 310 310 311 312 313 314 314 313 313 314 314 315 315 315 314 314 315 316 316 314 314 314
301 302 302 302 302 303 303 304 305 306 306 307 306 306 306 307 307 307 307 307 308 308 308 309 309 309 309 309 309 309 310 310 310 311 311 311 311 311 311 311 310 309 308 308 309 310 310 311 311 312 312 313 313 313 314 314 314 315 315 315 313 312 312
299 300 300 300 300 300 300 301 301 301 302 302 302 302 302 302 302 302 302 303 303 304 304 304 305 305 305 305 306 306 307 307 308 309 309 309 309 310 310 310 310 310 310 310 309 309 309 309 309 309 310 310 310 311 311 312 314 315 315 314 312 311 310

ECMWFFLT1_850_thetae_069.txt.gz
Theta_e
332 331 328 328 329 329 331 332 331 330 329 328 327 329 331 331 330 329 329 330 331 330 330 329 330 330 330 331 330 330 331 330 328 330 330 328 328 330 330 329 329 329 329 329 329 328 329 329 328 328 327 327 327 327 327 327 327 326 326 326 326 325 325
331 331 330 331 331 329 330 332 332 330 329 327 327 328 329 329 328 327 328 329 330 331 331 331 331 330 330 329 329 329 330 329 328 329 329 329 329 330 330 328 329 330 330 329 327 328 329 329 329 328 327 327 327 326 326 326 326 326 325 325 324 324 325
331 331 330 330 329 328 331 332 332 331 328 325 325 327 328 328 326 326 327 328 330 330 330 331 332 330 329 327 327 327 327 328 328 328 329 328 328 329 329 329 329 329 330 329 328 329 328 327 328 328 327 327 327 326 326 326 326 326 325 324 324 325 325
329 328 328 326 326 329 331 331 331 330 328 324 323 324 326 327 326 325 327 328 329 329 329 330 330 330 329 327 326 326 327 328 328 327 328 327 327 327 328 329 330 329 329 329 329 328 327 326 328 328 327 327 326 326 326 326 326 326 325 325 325 325 325
327 327 326 325 327 331 332 330 329 329 328 326 324 323 323 323 323 322 324 327 326 326 327 328 329 330 330 329 326 326 327 328 327 326 327 326 327 327 327 329 330 329 328 327 328 328 327 327 327 327 327 327 326 325 325 324 325 325 325 325 325 324 324
326 326 326 327 330 331 330 329 328 328 328 327 327 326 324 322 322 323 324 327 326 324 325 327 328 329 331 330 327 325 327 328 327 327 326 326 327 327 327 328 329 328 327 327 327 328 327 327 327 327 326 326 326 325 324 323 324 324 325 325 324 323 322
325 325 325 328 330 329 329 329 328 328 328 328 327 328 326 324 325 324 324 326 325 323 323 324 324 325 328 330 329 328 328 327 326 327 326 326 326 326 326 327 327 327 327 325 326 328 327 327 327 326 326 326 325 324 324 323 323 323 323 323 322 321 319
324 324 326 328 328 328 329 329 329 329 329 328 328 327 326 325 326 324 324 325 322 319 321 320 321 322 323 327 329 328 329 328 326 325 325 325 326 327 326 326 326 326 326 325 325 327 327 327 327 326 326 326 325 324 323 322 322 321 321 320 320 318 317
323 325 328 328 327 328 328 328 328 329 328 328 328 327 326 326 327 325 325 326 320 317 318 319 323 323 320 324 327 326 327 328 326 324 325 325 325 326 326 325 326 326 326 327 327 327 326 326 326 326 326 326 325 323 322 322 321 320 319 318 318 317 316
324 327 328 328 327 328 328 327 327 328 328 328 328 327 326 326 326 325 326 325 319 315 317 320 322 321 319 322 324 325 326 325 324 325 326 326 325 325 325 325 326 327 327 327 327 326 325 326 326 325 325 324 323 322 322 322 321 320 319 318 317 315 314
325 328 328 327 328 328 328 327 327 327 328 327 327 326 326 326 326 325 325 324 317 314 317 322 322 320 321 321 320 323 323 321 324 326 327 327 325 324 327 327 326 327 327 326 326 326 326 325 324 323 323 322 322 322 322 322 321 320 319 317 316 314 313
326 327 327 327 328 328 327 327 327 327 327 327 326 326 325 325 325 325 325 323 320 318 319 322 323 323 324 322 320 322 322 321 324 325 326 327 325 324 326 327 326 327 327 326 326 327 326 324 323 322 322 322 322 321 321 321 321 319 318 317 315 313 312
326 327 326 326 327 326 326 327 327 327 327 326 326 326 325 325 325 325 325 323 321 323 323 322 324 325 324 323 323 323 322 323 323 324 326 327 326 325 326 326 327 326 326 326 326 326 324 322 321 320 320 321 321 321 320 320 320 319 318 316 313 312 312
326 326 322 322 326 326 326 326 326 326 326 325 324 325 325 325 325 325 325 323 321 323 324 324 324 324 323 323 324 323 323 324 324 325 327 326 327 327 326 327 326 325 326 327 325 324 323 321 321 319 319 319 319 319 319 319 319 318 316 315 312 311 311
327 325 318 318 324 326 325 325 326 325 325 325 324 324 325 325 325 325 324 322 321 323 324 324 323 323 323 323 323 323 323 323 324 326 327 327 327 327 326 326 326 325 326 325 323 322 322 321 320 319 318 318 318 318 317 317 317 316 315 314 312 311 311
326 322 316 317 324 326 325 325 325 324 324 324 324 324 324 324 325 324 323 322 321 322 323 323 323 323 323 322 322 322 323 323 324 326 328 328 328 327 327 326 326 326 326 324 322 321 321 320 319 319 319 319 318 318 317 316 316 315 315 314 312 312 311
325 322 318 318 324 326 325 325 325 324 324 323 323 323 323 324 325 324 322 321 320 321 323 322 322 322 321 321 321 322 322 323 323 324 326 327 328 328 327 327 327 327 325 323 322 321 320 320 319 319 319 319 319 319 319 318 317 316 316 315 314 313 312
326 323 320 321 324 326 325 324 323 323 323 322 322 323 323 324 325 323 321 319 319 320 321 321 320 320 320 320 321 321 322 322 323 323 324 325 326 326 326 325 325 325 324 322 322 321 321 320 320 320 320 320 320 320 319 318 318 317 317 316 315 314 314
325 323 322 323 323 324 325 323 319 321 322 321 321 322 323 324 323 321 319 318 318 318 319 320 320 320 321 321 320 321 322 322 322 322 322 323 324 324 324 324 324 324 324 323 323 322 322 321 321 321 321 320 320 320 320 319 319 319 318 318 317 316 315
326 325 325 324 323 324 325 322 319 320 321 320 321 322 322 323 321 319 318 318 317 317 318 319 320 320 320 320 320 320 321 322 322 322 322 322 323 323 323 323 323 323 324 324 323 323 323 323 322 322 322 321 320 320 320 320 319 319 319 319 319 318 316
327 327 326 323 323 325 324 322 321 321 320 320 320 321 322 321 320 319 318 317 317 317 318 319 320 320 320 320 320 320 320 321 321 321 321 322 322 322 322 322 322 322 322 322 323 323 323 323 322 321 321 320 320 320 320 320 320 319 320 319 319 319 318
326 327 325 322 323 325 324 322 322 321 320 320 320 321 321 321 321 320 319 319 318 318 319 320 320 320 320 320 320 320 320 320 320 320 320 320 320 320 321 321 321 321 321 320 321 321 320 320 321 321 321 320 320 320 319 320 320 320 319 319 319 319 319
325 325 324 323 323 324 324 323 322 320 320 321 321 321 320 320 321 321 320 320 320 319 320 320 319 319 320 319 320 320 320 320 319 319 320 319 319 319 320 320 318 317 316 316 315 315 315 315 316 318 320 320 320 320 320 320 320 320 319 319 319 319 319
324 323 323 324 324 324 324 323 321 320 321 321 321 321 320 320 320 320 320 320 320 321 322 319 317 318 319 319 320 320 320 320 320 319 319 319 318 318 319 319 316 312 311 312 312 312 312 312 312 314 317 318 317 317 318 319 320 320 320 319 319 319 318
322 321 322 322 323 323 323 322 321 321 320 320 320 320 321 321 320 320 320 320 320 319 317 313 312 314 317 319 320 320 320 320 320 319 319 319 318 318 318 319 318 315 312 311 311 312 313 313 313 314 314 315 315 315 316 316 317 318 319 319 319 319 318
321 320 321 322 323 323 322 321 321 320 319 318 319 319 318 317 317 318 318 318 317 314 310 308 308 310 312 315 317 317 318 319 319 318 318 319 319 319 319 320 320 320 318 316 315 317 318 318 316 316 316 316 316 316 316 316 316 317 317 318 318 319 319
320 321 322 322 322 322 321 321 319 318 316 315 315 315 314 314 315 315 315 316 315 313 311 311 309 308 308 310 311 312 315 319 320 319 319 319 319 320 321 322 322 322 322 321 318 319 321 322 321 319 319 318 318 318 318 317 317 317 317 317 318 318 319
319 320 321 319 319 320 320 320 319 318 317 315 314 313 313 313 315 315 315 315 314 314 314 313 312 311 310 309 308 310 312 316 319 319 319 321 322 322 323 324 323 322 322 322 320 318 320 322 322 320 320 319 318 319 319 318 317 318 318 318 318 318 318
319 320 319 319 319 319 320 319 318 318 317 315 314 314 313 313 315 316 316 316 315 314 313 314 313 313 312 311 310 312 314 315 318 319 320 322 323 322 323 323 322 322 322 322 321 319 318 319 319 319 319 319 318 319 319 317 317 318 318 318 318 318 318
319 319 319 318 318 319 319 319 318 318 317 316 316 315 314 314 314 315 316 316 315 314 314 314 314 314 314 314 314 315 316 318 320 321 322 323 322 321 321 321 320 321 322 321 319 318 317 317 317 318 319 320 320 319 318 317 317 317 318 319 318 318 317
319 319 319 319 318 318 318 319 318 318 318 318 317 317 317 316 316 315 315 316 317 316 315 315 314 315 316 317 317 317 317 318 320 321 322 322 321 320 320 319 317 318 319 319 318 318 318 318 318 318 318 319 319 318 317 317 317 317 318 318 318 317 317
319 319 319 319 318 318 318 318 318 318 318 317 317 316 317 318 318 318 318 318 318 318 317 317 317 317 318 318 318 318 318 318 319 321 321 320 321 321 320 318 317 316 317 318 317 317 317 317 317 317 316 316 317 316 316 317 317 316 316 317 316 316 315
317 317 318 318 318 317 317 317 317 317 317 317 317 316 317 318 318 319 319 319 319 319 319 319 319 318 318 318 317 317 317 318 318 319 319 318 318 318 317 316 316 316 315 314 314 313 313 313 313 313 312 314 316 316 316 316 316 315 316 317 316 315 314
314 314 314 314 314 315 315 315 314 315 316 316 316 315 316 316 316 316 317 317 316 316 317 317 317 317 316 316 316 315 315 315 315 315 315 314 314 315 315 316 316 316 314 313 312 311 311 311 310 310 309 311 312 312 313 315 316 316 316 316 315 315 315
312 311 311 311 311 311 311 312 312 313 313 314 314 314 314 314 314 314 314 314 314 314 314 314 314 314 314 314 314 313 312 311 311 311 311 311 311 312 313 313 313 313 313 312 311 311 311 311 310 310 309 309 309 310 310 312 314 315 315 315 314 314 314
307 308 308 308 308 308 309 309 310 311 311 310 310 310 311 311 311 310 310 310 310 310 310 311 311 311 311 311 311 311 310 309 309 310 309 309 309 310 310 311 311 311 311 311 311 310 310 310 310 309 309 310 310 310 310 311 312 314 314 314 314 314 314
302 302 303 303 304 305 305 305 306 307 308 309 309 309 309 309 310 309 308 308 307 306 306 306 306 307 308 308 308 308 307 306 306 306 306 306 306 307 307 307 307 307 307 307 307 307 307 307 307 307 308 309 309 310 311 312 312 313 313 313 313 313 312

ECMWFFLT1_850_thetae_072.txt.gz
Theta_e
332 331 331 330 328 325 325 326 325 326 328 329 331 333 332 332 331 331 330 330 330 330 329 329 330 330 330 331 330 330 330 330 329 330 330 330 329 329 328 328 328 329 329 329 329 328 329 328 328 328 328 328 328 327 327 327 326 326 326 325 326 326 326
331 331 330 328 326 324 324 326 327 328 328 329 331 333 332 331 331 330 330 330 330 330 330 330 330 330 330 330 329 329 329 329 328 329 330 330 329 329 328 328 329 329 329 329 329 328 328 328 327 328 328 328 328 327 327 327 326 325 326 326 326 326 326
330 330 329 327 325 325 327 329 330 330 330 331 332 332 332 331 329 329 329 330 330 330 331 332 330 330 329 328 328 329 328 327 327 328 329 329 328 328 328 328 329 329 329 329 328 328 328 328 328 328 328 327 327 326 326 326 325 325 325 326 326 326 326
330 329 328 328 327 326 329 331 331 331 331 331 331 331 332 331 328 328 329 330 331 331 331 332 331 330 329 328 327 328 328 327 326 327 328 328 328 328 329 328 329 329 328 328 328 328 327 327 328 328 328 328 327 326 326 326 326 325 325 326 326 326 326
328 328 328 329 327 327 329 331 331 332 331 331 331 330 330 330 328 328 329 329 330 330 330 330 330 330 330 328 327 327 328 327 327 327 327 327 327 327 328 329 329 329 328 328 328 327 326 326 327 328 327 327 326 326 326 326 326 326 326 326 325 325 324
329 328 329 328 326 328 330 331 331 331 331 330 329 328 328 329 328 326 328 328 326 327 327 327 329 330 329 329 328 328 327 327 328 327 326 326 326 326 327 328 329 329 328 327 327 327 326 327 327 327 327 326 326 325 325 326 326 325 325 325 324 322 321
329 327 327 325 325 329 330 330 330 329 330 329 329 329 327 327 328 326 327 328 327 327 326 324 327 329 329 329 328 328 328 328 327 326 326 327 326 326 327 327 328 328 327 326 326 326 327 327 327 326 326 325 325 324 324 325 325 324 324 324 322 321 320
328 326 326 324 324 328 329 329 329 328 329 327 328 330 327 327 329 327 328 328 328 328 325 321 322 324 327 329 329 328 328 328 327 326 326 326 326 326 326 326 327 327 327 326 326 326 326 327 327 326 326 325 324 324 324 324 323 322 323 322 320 319 319
326 325 325 324 326 327 328 328 328 328 327 325 326 326 325 327 327 325 326 325 324 326 325 321 319 320 322 326 328 328 328 329 327 325 325 325 325 326 326 326 326 326 326 325 325 326 326 326 326 326 326 325 324 324 323 323 322 322 321 320 319 318 318
325 324 324 325 326 327 327 327 328 328 327 326 324 322 323 325 324 323 324 321 321 325 323 321 322 320 319 322 324 325 327 328 327 326 325 325 325 325 325 325 325 326 326 325 325 326 326 326 326 326 326 325 324 323 323 322 321 321 320 318 318 317 317
324 323 323 325 324 325 326 327 328 328 327 327 326 324 325 325 323 325 325 319 318 320 320 323 325 321 320 320 321 322 323 324 326 327 326 325 325 325 325 324 324 325 326 326 326 326 326 326 326 326 326 325 324 323 322 321 320 320 319 318 317 316 316
323 323 324 324 322 323 325 326 327 327 327 328 327 326 327 325 323 326 324 318 315 317 320 325 325 324 323 320 319 320 319 321 325 326 327 327 325 325 325 324 325 325 325 325 325 326 326 325 324 324 324 323 323 322 322 321 320 319 318 317 316 315 314
324 325 325 324 323 325 326 326 327 327 327 328 326 326 326 325 324 325 323 317 314 316 320 325 325 325 323 320 322 323 320 322 324 325 327 328 326 325 325 325 325 325 324 325 325 325 324 323 323 322 322 322 322 322 322 321 320 319 318 317 315 313 313
326 327 326 324 325 327 326 326 326 327 327 327 325 325 326 325 324 325 322 318 315 316 321 325 325 323 322 324 325 323 322 324 326 325 327 328 328 326 325 324 324 323 324 325 325 324 322 321 321 321 321 322 322 321 321 321 320 318 316 315 314 313 312
328 328 327 326 326 327 327 326 325 326 327 325 324 325 326 325 325 325 324 321 320 320 322 324 323 322 324 325 324 322 323 325 326 326 326 327 328 327 325 324 324 324 324 324 323 323 322 320 319 319 320 321 321 320 320 320 320 318 316 314 313 312 312
329 328 328 326 325 327 328 325 323 325 325 324 324 326 326 325 325 326 324 322 322 323 324 323 323 323 324 323 322 324 324 323 324 326 326 327 328 327 326 325 325 326 325 323 323 323 321 320 319 319 318 318 319 319 320 320 319 316 315 314 312 312 311
328 327 326 325 326 326 326 324 323 324 325 325 325 326 325 324 325 325 323 322 322 323 324 323 323 323 323 322 323 324 322 321 323 327 328 328 327 327 326 326 326 326 324 322 322 322 320 320 320 319 319 318 318 318 318 318 317 315 315 313 311 312 311
327 325 324 326 326 325 324 324 324 324 325 325 325 325 324 324 325 324 322 321 321 323 324 322 322 322 321 321 322 323 322 322 323 326 328 328 327 327 327 326 327 325 323 322 322 320 320 320 319 319 319 319 318 318 318 318 317 316 315 314 311 311 312
326 323 324 326 325 323 324 325 325 324 324 323 322 324 324 324 325 323 321 320 321 322 323 321 321 321 320 321 321 322 323 323 323 324 326 326 327 327 326 326 326 324 322 322 321 321 320 320 320 319 319 320 320 319 318 318 318 317 317 316 313 313 313
326 322 323 324 324 323 323 324 324 323 323 322 321 323 324 325 324 321 319 319 319 320 321 321 321 321 320 321 321 322 322 323 322 323 323 324 324 324 324 325 325 323 322 322 322 321 321 320 321 321 321 321 321 320 319 318 318 318 318 318 316 315 315
325 323 322 323 324 324 322 322 321 320 321 321 321 323 324 323 322 320 319 318 318 319 320 320 321 321 321 321 321 322 322 323 322 322 323 323 323 323 324 323 323 323 323 323 322 322 322 322 322 322 322 321 320 320 320 319 319 319 319 319 319 318 317
325 325 324 324 325 324 322 321 321 320 320 320 321 323 323 321 320 319 318 318 318 319 319 320 320 320 321 321 321 321 322 322 322 322 323 323 322 323 323 322 323 322 323 323 323 322 323 323 322 321 320 321 320 320 320 319 320 320 319 319 319 319 319
326 326 325 325 325 324 322 322 321 320 320 320 322 323 322 321 320 319 319 319 318 319 319 320 320 320 320 321 321 321 321 321 321 321 321 322 321 322 322 322 322 322 322 323 322 323 323 322 321 321 321 320 320 319 319 319 320 320 320 320 319 319 319
326 325 324 324 324 323 322 322 320 320 320 321 321 322 321 321 321 320 320 320 319 319 320 320 320 320 320 320 320 320 321 320 320 320 320 320 320 320 321 321 321 320 320 320 319 320 319 318 318 318 320 321 321 319 319 319 319 320 320 320 319 319 319
325 324 323 324 324 323 322 321 321 321 322 321 321 321 321 321 320 320 320 320 320 320 321 320 319 319 320 320 320 320 320 320 320 320 320 320 319 319 319 319 319 318 317 315 314 313 313 313 313 314 315 317 318 318 317 316 317 318 319 319 319 319 320
323 323 324 325 324 323 321 321 321 321 321 320 320 320 320 320 320 320 320 320 320 320 319 319 319 319 319 320 320 320 320 320 319 318 319 319 318 318 318 318 319 319 319 318 316 316 316 316 316 316 316 316 316 316 315 315 315 316 316 317 317 317 319
323 324 324 324 323 322 321 321 321 320 318 319 319 320 320 320 320 319 319 319 318 315 313 314 316 318 318 319 319 318 318 319 320 319 318 318 318 318 318 318 320 320 321 321 319 320 320 320 319 320 320 319 318 318 317 317 317 316 316 317 317 317 317
323 324 324 323 323 322 321 321 320 319 318 317 317 316 316 316 316 316 316 316 315 313 311 312 313 313 312 313 314 312 312 314 316 317 318 319 319 319 318 318 320 320 320 320 321 321 320 319 320 320 319 317 317 317 317 317 317 317 317 317 317 317 317
322 322 323 323 322 321 320 320 319 318 317 315 314 314 313 314 314 313 314 314 314 313 313 313 312 311 310 311 312 311 311 311 312 315 318 318 318 319 319 318 319 320 320 319 319 319 319 319 319 318 317 317 317 317 317 317 317 318 318 317 317 316 317
321 321 321 320 319 319 320 319 317 316 314 314 314 313 312 312 312 312 313 313 314 313 313 312 311 311 311 312 313 313 313 313 314 317 319 319 318 319 318 318 318 319 319 317 316 317 318 319 319 318 318 319 319 318 317 317 317 318 318 317 317 316 316
320 321 320 319 318 319 319 319 318 316 315 314 314 313 312 312 312 311 311 312 314 314 313 312 311 312 312 313 313 313 313 315 317 320 321 320 320 320 318 318 319 319 318 317 317 316 317 318 318 317 318 318 318 317 316 315 315 316 315 315 316 316 316
319 319 319 318 318 319 318 318 318 318 317 317 316 316 315 315 314 314 313 313 314 314 313 312 312 313 314 314 314 314 315 317 318 319 320 320 320 319 317 317 318 318 317 317 316 316 316 316 315 315 314 314 314 315 315 315 315 314 314 315 315 315 315
318 318 318 318 318 319 319 319 318 318 318 317 317 316 317 317 317 317 317 317 317 316 316 315 315 315 315 315 315 316 317 318 318 319 319 319 318 317 317 317 317 316 316 316 315 314 313 313 313 312 311 311 311 312 313 315 315 315 314 314 314 314 314
315 316 316 317 317 317 317 317 317 317 317 317 317 316 317 317 318 318 317 317 316 316 316 316 317 317 317 317 317 318 317 317 317 317 317 317 316 316 316 315 314 314 314 314 314 313 312 312 312 311 311 310 310 310 311 311 313 313 313 314 314 314 314
313 313 313 314 314 314 314 314 315 315 315 315 315 315 315 315 314 314 314 313 313 314 314 314 315 316 316 316 316 316 315 314 314 314 313 312 313 313 313 312 311 311 312 312 312 312 311 311 311 310 310 309 308 308 308 308 309 310 311 313 314 314 314
312 312 312 312 313 312 312 312 312 312 312 311 311 311 311 311 311 311 310 310 310 310 310 310 312 313 313 314 313 313 313 312 311 311 310 309 309 310 310 310 310 309 309 309 309 309 308 308 308 307 306 305 304 303 303 303 305 306 307 309 311 312 313
309 309 309 310 310 311 310 310 310 310 310 310 310 310 310 310 311 311 310 309 309 308 307 307 308 309 309 309 309 309 309 309 308 307 306 306 307 307 307 307 306 305 304 303 303 303 303 302 302 301 301 301 301 301 301 300 301 301 302 304 305 307 308

ECMWFFLT1_850_thetae_075.txt.gz
Theta_e
329 330 331 331 330 330 329 328 326 326 328 330 331 330 330 330 329 330 330 330 329 330 330 330 330 329 329 329 329 329 329 329 329 330 329 328 328 328 328 328 327 327 327 327 328 327 327 328 328 328 327 326 326 326 327 326 326 326 325 325 325 325 325
331 331 331 330 330 329 328 328 327 326 327 330 332 331 331 332 331 330 330 330 330 330 329 329 330 330 329 330 330 329 329 329 329 329 329 328 328 328 327 327 327 327 328 328 328 327 327 327 327 327 327 327 327 327 326 326 326 326 325 325 325 325 326
331 332 330 329 329 328 327 328 328 328 329 331 331 330 331 331 330 330 330 330 331 330 329 329 330 330 330 330 330 329 330 329 329 329 329 328 328 328 327 327 327 327 328 329 328 328 328 326 326 327 327 327 327 327 326 326 326 326 325 325 325 325 326
330 331 330 330 329 327 325 326 328 330 331 332 332 331 332 331 330 329 330 330 330 330 330 330 329 329 330 330 330 330 329 329 328 328 329 328 329 329 327 327 327 326 327 328 328 328 328 327 326 326 327 327 326 326 326 326 326 325 325 325 325 325 325
329 331 330 330 328 325 324 326 330 331 331 332 332 332 332 331 329 328 329 330 330 330 331 331 329 329 329 329 329 329 329 329 328 328 328 328 329 329 328 328 328 327 327 327 327 327 327 327 326 326 327 326 326 326 326 326 325 325 325 325 325 325 324
329 330 330 329 326 325 327 329 331 332 332 332 332 331 331 330 329 329 329 330 330 330 331 331 330 330 330 328 328 328 328 328 328 327 328 328 328 328 328 328 328 328 328 328 327 327 327 327 327 327 327 326 326 326 326 326 326 325 325 325 324 323 323
331 330 329 327 325 326 330 331 331 332 332 331 331 331 331 330 328 329 329 328 329 329 329 329 330 330 329 328 328 328 327 327 327 327 327 327 327 327 328 328 328 328 328 327 327 327 327 327 327 326 326 326 325 326 326 326 326 325 325 323 322 321 320
332 331 329 328 327 328 331 331 331 331 331 330 330 330 329 329 327 328 328 326 327 327 325 327 329 330 329 328 327 327 327 327 327 327 326 326 326 326 326 327 327 326 327 327 327 326 326 327 327 326 326 325 325 326 326 326 325 325 324 323 322 321 319
331 331 330 329 328 329 330 331 330 330 329 328 329 328 327 327 327 328 328 327 326 325 322 322 325 327 329 329 327 327 327 326 326 326 326 326 325 325 325 326 326 326 326 326 326 326 327 327 327 326 325 324 324 325 325 325 325 324 323 322 322 321 319
330 331 331 329 329 330 330 330 329 329 328 328 328 328 327 327 327 327 328 328 327 324 320 319 321 324 326 328 327 327 327 326 325 324 324 325 325 325 325 325 326 326 326 326 326 327 327 327 326 326 325 323 323 324 324 324 324 323 322 321 320 320 319
329 331 330 328 329 330 329 329 329 329 328 327 328 328 327 326 326 324 325 325 326 324 321 320 321 322 323 324 326 327 327 326 325 324 324 324 325 325 325 325 325 326 325 325 326 327 326 326 326 326 325 324 323 323 323 323 323 322 320 320 319 319 318
331 331 329 329 330 329 328 329 328 328 327 327 327 326 325 324 324 324 323 323 324 325 324 322 321 321 321 321 324 326 325 325 325 325 325 325 325 325 325 324 324 325 325 324 325 326 326 326 326 326 325 324 323 324 322 322 322 321 320 319 318 318 317
331 330 329 329 329 328 328 329 328 328 328 327 326 325 324 324 324 325 323 322 323 325 326 324 321 320 319 319 321 322 322 323 325 326 326 325 325 325 324 324 325 325 326 325 325 326 326 325 325 325 325 324 323 323 322 322 321 320 320 318 318 318 316
330 328 328 329 329 328 329 329 328 328 328 327 325 323 323 323 323 322 319 320 322 325 326 324 320 320 320 319 321 321 321 323 324 325 327 326 325 325 324 325 325 325 325 325 325 325 324 324 324 323 323 323 323 322 322 321 320 319 318 317 317 317 315
328 326 327 329 328 328 328 328 328 327 327 326 324 322 322 323 322 320 318 318 321 324 325 323 321 323 322 321 322 323 323 325 325 326 327 326 326 326 325 325 325 324 325 325 323 322 322 322 321 322 322 322 322 322 322 320 319 319 318 317 316 315 314
326 325 327 328 328 328 328 327 327 327 325 322 322 323 324 324 323 322 319 320 322 324 323 322 323 324 323 323 324 324 325 326 326 327 328 328 327 326 325 325 324 324 325 324 322 321 320 320 320 320 320 321 321 321 322 321 320 319 317 316 315 313 313
327 327 327 328 328 328 327 325 326 326 323 320 323 325 325 324 325 324 321 321 324 324 323 323 324 323 323 324 324 323 323 324 326 327 327 328 327 326 325 324 324 324 324 322 321 320 320 320 319 319 319 319 320 320 321 321 320 319 317 315 313 312 312
327 328 328 328 328 325 323 323 325 324 320 321 326 326 324 324 325 324 321 322 323 323 322 323 323 322 322 323 322 322 323 324 327 327 327 327 327 326 325 324 324 323 323 322 320 320 320 320 319 319 318 318 318 319 320 320 320 318 316 315 313 312 312
328 328 328 328 326 324 324 323 324 321 319 323 327 325 324 324 324 323 321 321 323 323 322 322 322 321 322 322 321 323 323 325 327 327 327 327 326 325 325 324 323 323 322 322 321 320 320 320 319 319 318 318 318 318 319 320 319 317 316 315 313 311 312
328 327 327 327 326 325 325 323 322 320 320 324 325 324 324 325 323 321 320 321 323 323 321 321 321 320 321 321 322 323 323 323 324 325 326 326 326 326 326 324 323 323 322 322 320 320 320 319 319 319 319 319 319 319 319 318 318 318 317 317 314 311 311
328 327 326 326 325 325 324 323 322 322 321 322 323 323 325 324 321 320 320 321 322 321 320 320 320 320 321 321 322 323 322 322 323 323 323 324 325 325 325 324 323 322 322 321 320 320 320 320 320 320 320 320 320 320 319 319 318 319 319 318 316 314 313
327 326 326 326 325 325 324 324 324 323 321 321 322 324 324 322 319 319 318 319 320 320 320 320 320 321 321 321 322 322 322 322 323 323 323 323 324 324 324 323 323 322 322 321 320 320 320 320 320 321 321 321 320 320 320 319 319 319 319 319 318 317 316
326 325 324 325 325 325 324 324 323 322 321 322 323 324 322 320 319 319 318 317 319 320 320 320 320 321 320 320 321 322 322 322 323 323 323 323 323 323 322 322 322 322 322 322 321 321 321 321 321 321 321 321 320 320 320 320 319 319 319 319 319 319 318
324 323 323 323 324 323 322 322 321 321 322 323 323 322 321 320 319 318 318 317 318 319 320 320 320 320 320 321 321 321 321 321 321 322 321 321 321 322 322 322 322 321 322 322 322 322 323 322 322 321 321 320 320 320 319 319 319 319 320 320 319 319 319
324 324 324 323 322 321 321 321 321 321 322 322 322 321 320 319 318 318 319 318 318 320 320 320 320 320 320 321 321 321 320 320 320 321 320 320 320 320 320 320 320 320 319 319 319 319 321 321 320 319 319 320 320 320 320 319 319 318 318 319 320 320 319
325 325 324 323 322 321 321 320 320 321 322 322 321 321 321 320 319 320 319 318 318 320 320 320 320 320 320 320 320 320 320 320 320 319 320 319 319 319 319 319 319 319 318 317 315 315 315 316 315 314 315 316 317 317 318 318 317 316 315 316 317 317 318
325 324 323 322 322 321 320 320 320 321 321 321 321 321 321 320 320 320 320 320 320 320 320 320 319 319 320 320 320 320 320 319 319 319 319 318 318 318 318 318 318 319 319 319 318 317 317 318 317 316 316 316 317 317 317 316 316 316 316 317 317 317 317
325 324 323 322 321 321 320 321 321 321 320 321 321 321 320 320 320 320 320 319 318 317 317 319 319 319 319 319 320 320 318 316 317 318 318 318 319 318 318 318 318 319 319 319 318 318 320 320 320 320 318 317 318 318 317 316 316 316 317 317 317 316 317
324 323 322 321 321 321 321 321 321 321 320 320 320 320 320 319 318 318 317 315 313 312 313 314 316 317 318 319 319 318 314 312 313 315 316 316 317 317 317 318 318 318 318 317 316 317 319 320 320 320 319 318 318 317 317 316 316 316 316 317 316 316 317
324 323 321 321 321 321 321 321 320 319 319 320 320 319 319 318 316 315 314 313 312 312 311 311 312 313 314 314 315 314 312 312 313 313 313 314 314 314 316 317 317 317 317 317 316 316 317 317 317 318 319 319 318 318 317 317 316 317 316 316 316 316 316
323 322 321 320 320 320 320 319 317 317 317 316 315 315 316 316 314 313 312 312 312 312 312 312 311 311 311 311 312 312 312 312 313 313 314 316 316 316 317 318 317 317 317 317 317 317 317 317 317 317 317 317 316 316 316 315 315 315 315 314 315 315 315
321 321 320 320 320 320 319 318 317 315 314 312 311 311 311 312 311 311 311 311 312 312 312 313 312 312 312 312 312 313 313 313 314 315 316 317 317 317 318 318 318 317 317 317 317 316 316 316 315 314 314 314 313 313 312 312 312 312 312 313 314 314 315
319 319 319 319 319 319 318 317 316 314 313 313 313 313 313 312 312 312 313 313 314 314 314 314 314 314 314 313 313 314 315 315 315 315 316 317 317 317 318 318 317 316 316 316 316 315 314 313 313 312 312 311 311 310 310 310 310 310 310 311 311 311 312
317 318 318 318 319 319 318 318 317 316 315 315 316 316 317 317 316 316 317 316 316 316 316 316 316 315 315 315 315 315 316 316 316 317 317 318 318 317 317 317 316 316 315 315 315 314 313 312 311 310 309 309 308 308 308 308 307 307 307 307 308 308 309
315 315 315 315 316 316 317 317 317 317 317 317 317 317 317 317 317 316 316 316 315 316 316 316 316 316 315 316 316 316 316 316 316 316 316 316 316 316 315 315 314 314 313 312 311 310 308 307 306 305 304 304 304 304 304 303 303 302 302 302 303 303 305
313 313 313 313 312 312 313 313 313 313 314 313 313 313 313 313 312 312 312 312 313 314 314 314 314 314 314 315 315 315 314 313 313 313 313 312 312 312 311 310 309 308 307 306 305 303 302 302 301 302 302 302 303 303 304 304 303 302 302 302 302 302 303
311 312 312 312 312 311 311 311 311 311 312 311 311 311 311 311 310 310 309 309 310 311 310 309 309 309 310 311 311 310 309 308 308 309 309 309 308 307 306 305 304 302 301 301 300 300 301 303 303 304 304 304 305 306 305 305 305 305 304 305 305 305 306